Location: West Cummington
(42.4920°N, 72.9680°W)
Time: 06:35:49
(UTC-04:00)

ATLAS 2AS CENTAUR R/B - Visible Passes

Search period start: 18 April 2014 00:00
Search period end: 28 April 2014 00:00
Orbit: 926 x 1287 km, 63.7° (Epoch: 02 April)

Date Brightness Start Highest point End Pass type
(mag) Time Alt. Az. Time Alt. Az. Time Alt. Az.
18 Apr 5.3 01:01:05 10° NNW 01:06:36 20° NNE 01:12:10 10° ENE visible
18 Apr 3.9 02:51:56 10° NNW 02:59:42 50° NE 03:07:21 10° ESE visible
18 Apr 3.3 04:43:12 10° NW 04:50:44 46° WSW 04:58:04 10° S visible
18 Apr 4.4 20:26:18 10° WSW 20:33:01 40° NW 20:40:17 10° NNE visible
18 Apr 5.5 22:21:37 10° NW 22:26:26 17° NNW 22:31:24 10° NNE visible
19 Apr 5.4 00:16:08 10° NNW 00:20:58 17° NNE 00:25:52 10° NE visible
19 Apr 4.4 02:07:17 10° NNW 02:14:35 37° NE 02:21:49 10° ESE visible
19 Apr 3.0 03:58:13 10° NW 04:06:12 68° WSW 04:13:57 10° SSE visible
19 Apr 5.3 21:35:26 10° WNW 21:40:50 21° NNW 21:46:29 10° NNE visible
19 Apr 5.5 23:30:54 10° NNW 23:35:15 15° N 23:39:41 10° NE visible
20 Apr 4.8 01:22:38 10° NNW 01:29:18 28° NNE 01:35:59 10° E visible
20 Apr 3.0 03:13:24 10° NW 03:21:30 85° NE 03:29:24 10° SE visible
20 Apr 4.0 05:05:47 10° WNW 05:11:39 23° WSW 05:17:23 10° SSW visible
20 Apr 5.1 20:49:23 10° W 20:55:23 26° NNW 21:01:43 10° NNE visible
20 Apr 5.5 22:45:16 10° NW 22:49:31 15° N 22:53:51 10° NNE visible
21 Apr 5.1 00:37:55 10° NNW 00:43:53 22° NNE 00:49:52 10° ENE visible
21 Apr 3.5 02:28:41 10° NNW 02:36:38 61° NE 02:44:27 10° SE visible
21 Apr 3.5 04:20:16 10° NW 04:27:21 36° WSW 04:34:14 10° S visible
21 Apr 4.7 20:03:35 10° W 20:10:04 34° NW 20:17:02 10° NNE visible
21 Apr 5.5 21:59:16 10° NW 22:03:47 16° N 22:08:26 10° NNE visible
21 Apr 5.3 23:53:05 10° NNW 23:58:19 18° NNE 00:03:35 10° ENE visible
22 Apr 4.0 01:44:01 10° NNW 01:51:37 44° NE 01:59:08 10° ESE visible
22 Apr 3.1 03:35:08 10° NW 03:42:53 54° WSW 03:50:26 10° S visible
22 Apr 5.4 21:13:05 10° WNW 21:18:08 19° NNW 21:23:22 10° NNE visible
22 Apr 5.4 23:08:02 10° NNW 23:12:38 16° N 23:17:19 10° NE visible
23 Apr 4.5 00:59:22 10° NNW 01:06:26 33° NE 01:13:28 10° E visible
23 Apr 2.9 02:50:14 10° NW 02:58:17 79° WSW 03:02:48 29° SSE visible
23 Apr 4.2 04:43:27 10° WNW 04:48:06 17° WSW 04:50:00 16° WSW visible
23 Apr 5.2 20:26:56 10° WNW 20:32:35 23° NNW 20:38:31 10° NNE visible
23 Apr 5.4 22:22:38 10° NNW 22:26:54 15° N 22:31:15 10° NE visible
24 Apr 4.8 00:14:42 10° NNW 00:21:06 25° NNE 00:27:30 10° E visible
24 Apr 3.1 02:05:27 10° NNW 02:13:31 74° NE 02:17:06 37° SE visible
24 Apr 3.8 03:57:28 10° NW 04:03:53 27° WSW 04:04:24 27° WSW visible
24 Apr 5.4 21:36:50 10° NW 21:41:10 15° N 21:45:35 10° NNE visible
24 Apr 5.1 23:29:57 10° NNW 23:35:37 21° NNE 23:41:19 10° ENE visible
25 Apr 3.6 01:20:45 10° NNW 01:28:36 53° NE 01:32:18 31° ESE visible
25 Apr 3.3 03:12:07 10° NW 03:19:32 42° WSW 03:19:38 42° WSW visible
25 Apr 5.3 20:50:45 10° NW 20:55:27 17° NNW 21:00:19 10° NNE visible
25 Apr 5.3 22:45:02 10° NNW 22:50:00 17° NNE 22:55:01 10° NE visible
26 Apr 4.1 00:36:06 10° NNW 00:43:31 39° NE 00:47:54 23° E visible
26 Apr 2.9 02:27:06 10° NW 02:35:01 63° WSW 02:35:16 63° SW visible
26 Apr 4.7 04:21:55 10° W 04:22:38 11° W 04:22:38 11° W visible
26 Apr 5.3 21:59:52 10° NNW 22:04:18 16° N 22:08:48 10° NE visible
26 Apr 4.5 23:51:27 10° NNW 23:58:16 30° NE 00:03:44 15° E visible
27 Apr 2.9 01:42:15 10° NW 01:50:21 90° WSW 01:51:07 76° SE visible
27 Apr 4.4 03:34:52 10° WNW 03:38:30 19° W 03:38:30 19° W visible
27 Apr 5.3 21:14:18 10° NW 21:18:33 15° N 21:22:53 10° NNE visible
27 Apr 4.8 23:06:45 10° NNW 23:12:52 23° NNE 23:19:00 10° ENE visible
